Date String (YYYY-MM-DD hh:mm:ss) UTC,Instrument flags,absolute air pressure of the measurement (hPa),sample flow rate (lpm),inlet stack bypass flow (lpm),air temperature of the measurement (°C),ambient temperature measured by the external sensor (°C),aerosol sample conditioner tube jacket temperature (°C),OPC LED temperature (°C),internal box temperature (°C),relative humidity of the measurement (%),span deviation,mass concentration of particles derived from Lorenz-Mie calculation of OPC scattering (μg/m³),mass concentration of particles derived from Lorenz-Mie calculation of OPC scattering (μg/m³),mass concentration of particles derived from Lorenz-Mie calculation of OPC scattering (μg/m³)
DateTimeUTC,F1_M11,P_M11,Q1_M11,Q2_M11,T1_M11,T2_M11,T3_M11,T4_M11,T5_M11,U1_M11,ZSPAN_M11,X2_M11,X0_M11,X1_M11
2023-09-05 06:00:00,SystemResetWarning,0826.3,5.00,000.00,028.3,027.1,000.0,036.6,029.9,18.7,0000.0,0001.56,0004.55,0001.00
2023-09-05 06:01:00,SystemResetWarning,0826.4,5.01,000.00,028.3,027.1,000.0,036.6,029.9,19.0,0000.0,0001.54,0004.58,0000.99
2023-09-05 06:02:00,SystemResetWarning,0826.4,5.00,000.00,028.3,027.1,000.0,036.6,030.0,19.6,0000.0,0001.49,0004.49,0000.99
2023-09-05 06:03:00,SystemResetWarning,0826.4,5.00,000.00,028.4,027.1,000.0,036.6,030.0,18.8,0000.0,0001.47,0004.46,0000.98
2023-09-05 06:04:00,SystemResetWarning,0826.4,5.00,000.00,028.4,027.2,000.0,036.7,030.0,18.2,0000.0,0001.50,0004.60,0000.98
2023-09-05 06:05:00,SystemResetWarning,0826.4,5.00,000.00,028.4,027.2,000.0,036.7,030.1,17.9,0000.0,0001.47,0004.43,0000.98
2023-09-05 06:06:00,SystemResetWarning,0826.5,5.00,000.00,028.4,026.9,000.0,036.7,029.9,17.2,0000.0,0001.46,0004.36,0000.99
2023-09-05 06:07:00,SystemResetWarning,0826.6,4.99,000.00,028.3,025.3,000.0,036.6,029.4,18.3,0000.0,0001.41,0003.23,0000.98
2023-09-05 06:08:00,SystemResetWarning,0826.6,5.01,000.00,028.2,024.4,000.0,036.5,029.3,19.2,0000.0,0001.46,0002.84,0000.98
2023-09-05 06:09:00,SystemResetWarning,0826.6,5.02,000.00,028.1,024.5,000.0,036.5,029.1,19.8,0000.0,0001.48,0002.92,0000.99
2023-09-05 06:10:00,SystemResetWarning,0826.6,4.99,000.00,028.0,024.8,000.0,036.5,029.1,20.0,0000.0,0001.52,0003.07,0001.00
2023-09-05 06:11:00,SystemResetWarning,0826.6,4.99,000.00,028.0,025.2,000.0,036.5,029.3,20.2,0000.0,0001.57,0003.25,0001.01
2023-09-05 06:12:00,SystemResetWarning,0826.6,5.00,000.00,028.0,025.5,000.0,036.5,029.4,19.9,0000.0,0001.59,0003.30,0001.02
2023-09-05 06:13:00,SystemResetWarning,0826.6,5.00,000.00,028.0,025.7,000.0,036.4,029.4,19.2,0000.0,0001.60,0004.17,0001.03
2023-09-05 06:14:00,SystemResetWarning,0826.6,5.00,000.00,028.0,026.0,000.0,036.4,029.4,19.1,0000.0,0001.64,0004.59,0001.03
2023-09-05 06:15:00,SystemResetWarning,0826.6,5.01,000.00,028.0,026.1,000.0,036.4,029.5,19.2,0000.0,0001.62,0004.52,0001.04
2023-09-05 06:16:00,SystemResetWarning,0826.6,5.00,000.00,028.0,026.3,000.0,036.4,029.5,19.1,0000.0,0001.66,0004.50,0001.04
2023-09-05 06:17:00,SystemResetWarning,0826.6,5.00,000.00,028.0,026.4,000.0,036.4,029.5,18.6,0000.0,0001.68,0004.58,0001.04
2023-09-05 06:18:00,SystemResetWarning,0826.6,4.99,000.00,028.0,026.5,000.0,036.4,029.6,18.4,0000.0,0001.68,0004.61,0001.04
2023-09-05 06:19:00,SystemResetWarning,0826.4,5.00,000.00,028.1,026.6,000.0,036.4,029.6,18.3,0000.0,0001.61,0004.41,0001.04
2023-09-05 06:20:00,SystemResetWarning,0826.5,5.00,000.00,028.1,026.7,000.0,036.4,029.6,17.4,0000.0,0001.57,0004.35,0001.04
2023-09-05 06:21:00,SystemResetWarning,0826.5,5.00,000.00,028.1,026.7,000.0,036.4,029.7,17.2,0000.0,0001.55,0004.32,0001.04
2023-09-05 06:22:00,SystemResetWarning,0826.6,4.99,000.00,028.1,026.8,000.0,036.5,029.7,17.1,0000.0,0001.45,0004.24,0001.03
2023-09-05 06:23:00,SystemResetWarning,0826.6,5.00,000.00,028.1,026.8,000.0,036.5,029.7,17.2,0000.0,0001.47,0004.94,0001.02
2023-09-05 06:24:00,SystemResetWarning,0826.6,5.00,000.00,028.2,026.9,000.0,036.5,029.8,17.3,0000.0,0001.47,0005.67,0001.01
2023-09-05 06:25:00,SystemResetWarning,0826.6,5.00,000.00,028.2,026.9,000.0,036.5,029.8,17.5,0000.0,0001.47,0005.65,0001.01
2023-09-05 06:26:00,SystemResetWarning,0826.7,5.01,000.00,028.2,027.0,000.0,036.5,029.8,17.7,0000.0,0001.46,0005.61,0001.00
2023-09-05 06:27:00,SystemResetWarning,0826.6,5.00,000.00,028.2,027.0,000.0,036.5,029.8,17.8,0000.0,0001.42,0005.56,0000.99
2023-09-05 06:28:00,SystemResetWarning,0826.7,5.00,000.00,028.2,027.0,000.0,036.5,029.8,17.7,0000.0,0001.41,0005.69,0000.98
2023-09-05 06:29:00,SystemResetWarning,0826.8,5.00,000.00,028.3,027.1,000.0,036.5,029.9,17.3,0000.0,0001.40,0005.67,0000.98
2023-09-05 06:30:00,SystemResetWarning,0826.9,5.00,000.00,028.3,027.1,000.0,036.6,029.9,17.5,0000.0,0001.42,0005.78,0000.98
2023-09-05 06:31:00,SystemResetWarning,0826.9,5.00,000.00,028.3,027.2,000.0,036.6,029.9,17.7,0000.0,0001.45,0005.80,0000.98
2023-09-05 06:32:00,SystemResetWarning,0826.9,5.00,000.00,028.3,027.2,000.0,036.6,029.9,17.8,0000.0,0001.47,0005.77,0000.98
2023-09-05 06:33:00,SystemResetWarning,0827.0,5.01,000.00,028.4,027.2,000.0,036.6,030.0,17.9,0000.0,0001.52,0005.71,0000.99
2023-09-05 06:34:00,SystemResetWarning,0826.9,4.98,000.00,028.4,026.6,000.0,036.6,029.9,17.9,0000.0,0001.48,0005.00,0000.99
2023-09-05 06:35:00,SystemResetWarning,0826.9,4.99,000.00,028.3,025.0,000.0,036.5,029.4,18.1,0000.0,0001.45,0003.93,0000.99
2023-09-05 06:36:00,SystemResetWarning,0826.9,5.02,000.00,028.1,024.5,000.0,036.5,029.2,18.3,0000.0,0001.46,0003.49,0001.00
2023-09-05 06:37:00,SystemResetWarning,0826.9,5.00,000.00,028.0,024.6,000.0,036.4,029.1,18.2,0000.0,0001.43,0003.38,0000.99
2023-09-05 06:38:00,SystemResetWarning,0827.0,4.99,000.00,027.9,024.9,000.0,036.4,029.2,18.5,0000.0,0001.41,0003.30,0000.99
2023-09-05 06:39:00,SystemResetWarning,0826.9,5.00,000.00,027.9,025.3,000.0,036.4,029.3,18.5,0000.0,0001.40,0003.19,0001.00
2023-09-05 06:40:00,SystemResetWarning,0827.0,5.00,000.00,027.9,025.6,000.0,036.4,029.3,18.5,0000.0,0001.41,0003.22,0001.00
2023-09-05 06:41:00,SystemResetWarning,0826.9,5.01,000.00,028.0,025.9,000.0,036.4,029.4,18.4,0000.0,0001.40,0003.10,0001.00
2023-09-05 06:42:00,SystemResetWarning,0826.9,5.00,000.00,028.0,026.1,000.0,036.4,029.4,18.3,0000.0,0001.37,0002.98,0000.99
2023-09-05 06:43:00,SystemResetWarning,0827.0,5.00,000.00,028.0,026.3,000.0,036.4,029.5,18.3,0000.0,0001.33,0002.94,0000.97
2023-09-05 06:44:00,SystemResetWarning,0826.9,5.00,000.00,028.0,026.4,000.0,036.4,029.5,18.3,0000.0,0001.31,0003.00,0000.95
2023-09-05 06:45:00,SystemResetWarning,0827.0,5.00,000.00,028.0,026.6,000.0,036.4,029.6,18.4,0000.0,0001.33,0003.71,0000.95
2023-09-05 06:46:00,SystemResetWarning,0827.0,5.00,000.00,028.1,026.7,000.0,036.4,029.6,18.3,0000.0,0001.35,0003.39,0000.96
2023-09-05 06:47:00,SystemResetWarning,0826.9,5.00,000.00,028.1,026.8,000.0,036.4,029.7,18.1,0000.0,0001.33,0003.03,0000.95
2023-09-05 06:48:00,SystemResetWarning,0826.9,5.00,000.00,028.1,026.8,000.0,036.5,029.7,17.8,0000.0,0001.35,0003.17,0000.95
2023-09-05 06:49:00,SystemResetWarning,0827.0,4.99,000.00,028.1,026.9,000.0,036.5,029.7,17.8,0000.0,0001.38,0003.36,0000.95
2023-09-05 06:50:00,SystemResetWarning,0827.0,4.99,000.00,028.2,027.0,000.0,036.5,029.8,17.7,0000.0,0001.40,0003.41,0000.95
2023-09-05 06:51:00,SystemResetWarning,0827.0,5.00,000.00,028.2,027.0,000.0,036.5,029.8,17.9,0000.0,0001.42,0003.33,0000.95
2023-09-05 06:52:00,SystemResetWarning,0827.0,4.99,000.00,028.2,027.1,000.0,036.5,029.8,18.0,0000.0,0001.40,0003.38,0000.94
2023-09-05 06:53:00,SystemResetWarning,0827.0,5.00,000.00,028.2,027.1,000.0,036.6,029.8,17.9,0000.0,0001.41,0003.68,0000.94
2023-09-05 06:54:00,SystemResetWarning,0826.9,5.00,000.00,028.2,027.1,000.0,036.6,029.8,18.0,0000.0,0001.44,0003.73,0000.95
2023-09-05 06:55:00,SystemResetWarning,0827.0,5.00,000.00,028.3,027.1,000.0,036.6,029.9,17.9,0000.0,0001.45,0003.75,0000.95
2023-09-05 06:56:00,SystemResetWarning,0827.0,5.00,000.00,028.3,027.2,000.0,036.6,029.9,17.8,0000.0,0001.39,0002.96,0000.94
2023-09-05 06:57:00,SystemResetWarning,0827.0,5.01,000.00,028.3,027.2,000.0,036.6,030.0,17.8,0000.0,0001.39,0003.07,0000.92
2023-09-05 06:58:00,SystemResetWarning,0827.0,5.00,000.00,028.4,027.2,000.0,036.7,030.0,17.9,0000.0,0001.34,0002.96,0000.91
2023-09-05 06:59:00,SystemResetWarning,0827.0,5.01,000.00,028.4,027.2,000.0,036.7,030.0,17.8,0000.0,0001.31,0002.77,0000.89
